This demonstration page uses our WeatherBlox Daily Observations layout. Learn more.

Left ArrowRight Arrow

30.21309, -93.2044

Hourly Observations for June 19, 2019

Temp ( °F °C ) Dew Point ( °F °C ) Humidity (%) Winds ( mph kmh ) Pressure ( in mb ) Visibility ( mi km ) Precip ( " mm )
12:15 am 00:15 Clear 80 26.6 75 23.7 84 84 SW 5 7 29.91 1013 10 16 0.00 0.00
12:35 am 00:35 Clear 80 26.5 75 23.7 85 85 SW 6 9 29.89 1012 10 16 0.00 0.00
12:55 am 00:55 Clear 80 26.6 75 23.7 84 84 SW 5 7 29.89 1012 10 16 0.00 0.00
1:15 am 01:15 Clear 80 26.6 75 23.8 85 85 SSW 6 9 29.90 1013 10 16 0.00 0.00
1:35 am 01:35 Clear 80 26.6 75 24 86 86 SW 6 9 29.89 1012 10 16 0.00 0.00
1:55 am 01:55 Clear 80 26.6 75 24.1 86 86 SSW 6 9 29.90 1013 10 16 0.00 0.00
2:15 am 02:15 Clear 80 26.5 75 24.1 87 87 SSW 5 7 29.89 1012 10 16 0.00 0.00
2:35 am 02:35 Clear 79 26.3 76 24.2 88 88 SW 5 7 29.89 1012 10 16 0.00 0.00
2:55 am 02:55 Clear 79 26.3 76 24.4 89 89 SW 5 7 29.88 1012 10 16 0.00 0.00
3:15 am 03:15 Clear 79 26.2 76 24.5 90 90 SE 6 9 29.86 1011 10 16 0.00 0.00
3:35 am 03:35 Clear 76 24.5 74 23.6 95 95 E 7 11 29.87 1011 10 16 0.00 0.00
3:55 am 03:55 Clear 75 24.1 74 23.4 96 96 ESE 7 11 29.87 1011 10 16 0.00 0.00
4:15 am 04:15 Partly Cloudy 78 25.7 76 24.5 93 93 SE 6 9 29.87 1011 10 16 0.00 0.00
4:35 am 04:35 Clear 79 25.9 76 24.6 93 93 SSW 3 6 29.86 1011 10 16 0.00 0.00
4:55 am 04:55 Clear 79 26 76 24.6 92 92 SW 3 6 29.86 1011 10 16 0.00 0.00
5:15 am 05:15 Clear 77 24.8 74 23.5 93 93 ESE 7 11 29.86 1011 10 16 0.00 0.00
5:35 am 05:35 Clear 77 25.1 76 24.5 96 96 SSW 3 6 29.86 1011 10 16 0.00 0.00
6:00 am 06:00 Mostly Clear 79 26 77 25 94 94 Calm 29.86 1011 10 16 0.00 0.00
6:55 am 06:55 Partly Cloudy 77 25 77 25 100 100 Calm 29.88 1012 10 16 0.00 0.00
7:45 am 07:45 Mostly Cloudy 81 27 77 25 89 89 Calm 29.90 1013 10 16 0.00 0.00
8:55 am 08:55 Mostly Cloudy 86 30 77 25 75 75 SW 9 15 29.93 1014 10 16 0.00 0.00
9:45 am 09:45 Partly Cloudy 86 30 75 24 70 70 SW 8 13 29.92 1013 10 16 0.00 0.00
10:48 am 10:48 Mostly Cloudy 88 31 75 24 66 66 SSW 7 11 29.90 1013 10 16 0.00 0.00
11:50 am 11:50 Mostly Cloudy 90 32 73 23 59 59 SSW 12 19 29.90 1012 10 16 0.00 0.00
12:45 pm 12:45 Mostly Cloudy 91 33 75 24 59 59 SSW 8 13 29.89 1012 10 16 0.00 0.00
3:45 pm 15:45 Partly Cloudy 91 33 70 21 49 49 SSW 8 13 29.85 1011 10 16 0.00 0.00
4:45 pm 16:45 Partly Cloudy 90 32 75 24 63 63 SSW 16 26 29.84 1010 10 16 0.00 0.00
5:50 pm 17:50 Partly Cloudy 88 31 75 24 66 66 SSW 14 22 29.82 1010 10 16 0.00 0.00
6:45 pm 18:45 Partly Cloudy 88 31 75 24 66 66 SSW 12 19 29.81 1009 10 16 0.00 0.00
9:45 pm 21:45 Mostly Clear 82 28 75 24 79 79 S 10 17 29.80 1009 10 16 0.00 0.00
10:15 pm 22:15 Clear 82 27.5 76 24.2 82 82 SSE 7 11 29.81 1009 10 16 0.00 0.00
10:35 pm 22:35 Clear 81 27 76 24.2 85 85 SE 8 13 29.81 1009 10 16 0.00 0.00
10:55 pm 22:55 Partly Cloudy 80 26.8 76 24.5 87 87 SE 8 13 29.81 1009 10 16 0.00 0.00
11:15 pm 23:15 Partly Cloudy 80 26.8 76 24.7 88 88 SE 7 11 29.81 1009 10 16 0.00 0.00
11:35 pm 23:35 Mostly Cloudy 81 27.2 77 24.9 87 87 SSE 7 11 29.82 1010 10 16 0.00 0.00
11:55 pm 23:55 Mostly Cloudy 82 27.5 77 25.1 87 87 SSE 7 11 29.82 1010 10 16 0.00 0.00

Powered by AerisWeather